Location: Groß Eilstorf
(52.8200°N, 9.4552°E)
Time: 08:36:48
(UTC+00:00)

RESURS DK-1 - Pass Details

Date: 15 May 2026
Orbit: 522 x 531 km, 69.9° (Epoch: 6 June)

Event Time Altitude Azimuth Distance (km) Brightness Sun altitude
Rises 20:35:52 0° 331° (NNW) 2,683 7.9 -10.0°
Reaches altitude 10° 20:38:27 10° 347° (NNW) 1,790 6.1 -10.2°
Maximum altitude 20:41:35 22° 39° (NE) 1,205 4.2 -10.5°
Drops below altitude 10° 20:44:44 10° 92° (E) 1,786 4.6 -10.8°
Enters shadow 20:45:29 - 98° (E) 2,028 4.8 -10.9°
